Location: U-46 Planetarium
(42.0300°N, 88.2740°W)
Time: 21:01:06
(UTC-05:00)

Daily predictions for brighter satellites

Satellite Brightness Start Highest point End
(mag) Time Altitude Azimuth Time Altitude Azimuth Time Altitude Azimuth
CZ-4C R/B 2.2 19:09:43 10° SSW 19:14:59 80° ESE 19:20:58 10° NE
Meteor 1-29 4.3 19:13:00 10° NE 19:15:39 20° E 19:18:17 10° SE
Cosmos 2346 Rocket 4.4 19:10:36 10° N 19:16:40 66° E 19:22:39 10° SSE
ATLAS CENTAUR R/B 1.5 19:13:51 10° NNW 19:18:03 53° NE 19:21:55 10° SE
HJ-1C 4.2 19:15:23 10° SE 19:18:22 30° ENE 19:21:23 10° N
USA 215 3.3 19:16:31 10° NE 19:23:02 68° SE 19:29:32 10° SW
Cosmos 2333 Rocket 2.5 19:17:50 10° SSW 19:23:37 75° WNW 19:29:24 10° NNE
Atlas Centaur 2 4.1 19:16:42 10° WSW 19:24:14 35° S 19:31:12 10° SE
COSMO-SKYMED 1 3.4 19:22:25 10° N 19:26:41 56° WNW 19:30:55 10° SSW
Cosmos 1484 Rocket 3.9 19:23:52 10° S 19:27:34 49° W 19:31:20 10° NNW
Cosmos 1452 Rocket 4.4 19:27:07 10° N 19:31:41 29° ENE 19:36:02 11° ESE
Cosmos 2034 Rocket 4.4 19:31:04 10° SSE 19:36:44 38° E 19:42:30 10° NNE
SAR-Lupe-4 4.4 19:33:21 10° S 19:36:51 54° W 19:40:22 10° NNW
NOSS 0 Rocket 4.5 19:30:49 10° SW 19:36:55 64° WNW 19:43:06 10° NNE
Helios 1A 3.1 19:33:37 10° SSE 19:37:40 53° ENE 19:41:46 10° N
Cosmos 1464 Rocket 4.1 19:34:27 10° SSE 19:40:32 56° E 19:46:35 10° NNE
ATLAS 3B R/B 4.1 19:35:13 10° WSW 19:42:26 45° NW 19:49:28 10° NNE
SeaSat 1 3.3 19:42:00 10° NE 19:46:08 26° ESE 19:50:16 10° SSE
Cosmos 1766 3.2 19:42:47 10° S 19:46:43 71° E 19:50:41 10° NNE
Cosmos 1766 Rocket 3.8 19:44:52 10° N 19:49:06 45° ENE 19:53:16 10° SSE
In-Cosmos 22 4.4 19:43:54 10° N 19:49:32 51° ENE 19:55:07 10° SSE
Cosmos 2237 Rocket 3.2 19:49:09 10° SW 19:54:40 51° WNW 20:00:12 10° NNE
Cosmos 192 4.4 19:50:30 10° S 19:55:20 55° ESE 20:00:11 10° NNE
NOSS 3-2 (A) 3.4 19:49:41 10° SSW 19:55:39 65° ESE 20:02:09 10° NE
Cosmos 1953 2.6 19:54:50 10° SSE 19:58:37 42° E 20:02:24 10° NNE
CZ-4B DEB 3.0 19:57:57 21° SE 19:59:52 48° ENE 20:03:03 10° N
USA 238 DEB 4.4 19:53:07 10° SW 20:00:03 59° NW 20:07:02 10° NNE
USA 238 4.3 19:53:12 10° SW 20:00:10 60° NW 20:07:08 10° NNE
CZ-2D R/B 3.6 20:01:16 21° SE 20:03:35 45° ENE 20:07:20 10° N
BREEZE-M DEB (TANK) 4.2 19:53:25 10° W 20:09:34 66° N 20:12:54 22° ENE
ATLAS 5 CENTAUR R/B 2.0 20:05:54 10° SSW 20:10:26 47° ESE 20:15:21 10° NE
SL-16 R/B 2.3 20:06:42 10° SSW 20:12:23 81° WNW 20:18:07 10° NNE
Cosmos 1891 Rocket 4.5 20:08:32 10° S 20:14:59 81° E 20:21:27 10° N
Spot 2 Rocket 4.1 20:11:11 10° S 20:16:07 56° W 20:21:06 10° NNW
Cosmos 1076 Rocket 3.7 20:12:36 10° NNW 20:16:55 72° W 20:21:14 10° S
Cosmos 2056 Rocket 4.4 20:11:47 10° NNW 20:17:03 51° WSW 20:22:15 10° S
Cosmos-2242 2.9 20:15:27 10° S 20:19:45 70° E 20:24:08 10° NNE
Cosmos 1805 3.1 20:17:50 10° S 20:21:45 82° E 20:25:43 10° N
Resurs 01 Rocket 2.8 20:18:30 10° S 20:22:45 44° W 20:27:03 10° NNW
Cosmos 1500 Rocket 4.1 20:20:15 10° N 20:24:24 38° ENE 20:24:24 38° ENE
Timation 1 Rocket 4.4 20:18:44 10° NNW 20:24:42 76° WSW 20:29:45 15° SSE
H-2A R/B 2.6 20:23:12 29° SSE 20:25:10 83° ENE 20:29:06 10° N
NOSS 3-3 (A) 4.4 20:18:10 10° NW 20:25:40 90° WSW 20:31:19 21° SSE
NOSS 3-3 (C) 4.4 20:18:16 10° NW 20:25:45 89° NE 20:31:23 22° SSE
Cosmos 1408 Rocket 3.9 20:21:27 10° NNW 20:25:48 65° W 20:30:04 10° S
Envisat 3.9 20:27:01 29° ENE 20:27:01 29° ENE 20:31:21 10° N
Helios 1B rocket 3.8 20:25:59 10° N 20:29:51 40° WNW 20:33:41 10° SW
Aureole 2 Rocket 4.2 20:26:42 10° SW 20:30:54 44° WNW 20:35:04 10° N
ALOS 2.5 20:26:33 10° S 20:31:12 70° WSW 20:35:52 10° NNW
NOSS 3-2 (C) 3.4 20:25:52 10° SSW 20:31:57 89° SE 20:38:37 10° NE
ASTEX 1 3.3 20:33:33 10° N 20:38:31 89° ESE 20:43:24 10° S
Cosmos 1758 3.8 20:34:35 10° SSW 20:38:36 61° W 20:42:42 10° N
Cosmos 1544 3.4 20:49:30 53° SW 20:50:08 64° W 20:53:53 10° N
FENGYUN 3A 4.4 20:45:17 10° S 20:50:30 52° W 20:55:46 10° NNW
Cosmos 1743 Rocket 3.7 20:47:20 10° NNW 20:51:48 74° W 20:52:51 51° SSW
Nadezhda 4 Rocket 4.1 20:47:19 10° N 20:53:37 76° W 20:58:29 17° S
GP-B 3.3 20:50:52 10° N 20:54:30 57° NNE 20:54:30 57° NNE
ATLAS CENTAUR R/B 4.0 20:54:23 10° WNW 20:56:34 14° WSW 20:58:39 10° SW
OAO 3 Rocket 4.2 20:52:59 10° WSW 20:56:35 33° SSW 20:56:35 33° SSW
Cosmos 1092 Rocket 3.8 20:51:24 10° N 20:57:40 85° E 21:00:04 40° S
Cosmos 2369 Rocket 2.7 20:53:15 10° NNW 20:58:21 43° NE 20:58:21 43° NE
Cosmos 1603 3.6 20:53:33 10° SSW 20:59:17 88° WNW 21:05:05 10° NNE
Cosmos 2142 Rocket 4.5 20:58:09 52° SE 20:59:25 62° E 21:05:43 10° NNE
Cosmos 1939 Rocket 4.3 21:01:28 29° N 21:01:28 29° N 21:03:36 10° N
CZ-4C R/B 4.5 20:59:55 10° W 21:04:19 23° NNW 21:09:09 10° NNE
USA 215 4.2 20:59:44 10° NE 21:05:49 43° NNW 21:11:54 10° W
Cosmos 1634 Rocket 3.8 21:09:54 52° S 21:11:35 81° E 21:17:50 10° N
SJ-11-01 4.4 21:12:14 69° NW 21:12:14 69° NW 21:16:25 10° NNW
Atlas Centaur 2 4.2 21:06:51 10° WSW 21:12:58 23° SSW 21:14:28 22° S
Cosmos 1943 Rocket 3.6 21:09:07 10° N 21:12:33 25° NNE 21:12:33 25° NNE
ERS-1 Rocket 3.0 21:14:26 74° NNW 21:14:26 74° NNW 21:19:01 10° NNW
Cosmos 2026 Rocket 3.9 21:09:31 10° N 21:15:08 64° NE 21:15:08 64° NE
SeaSat 1 3.6 21:19:07 10° NNE 21:23:46 43° WNW 21:28:24 10° SW
Cosmos 1674 4.5 21:20:18 10° NNW 21:22:49 31° NW 21:22:49 31° NW
Cosmos 839 Rocket 4.1 21:22:01 10° NNW 21:29:51 75° NE 21:29:59 75° ENE
H-2A R/B 4.1 21:34:40 22° N 21:34:40 22° N 21:36:18 10° N
H-2A R/B 4.4 21:55:26 14° NNE 21:55:26 14° NNE 21:56:10 10° N
ATLAS 5 CENTAUR R/B 3.8 21:51:10 10° W 21:55:21 28° NW 21:58:05 18° N
Cosmos 2369 Rocket 4.3 22:37:44 10° NW 22:40:09 21° WNW 22:40:09 21° WNW
